Weather History for Gillette, WY

Change the Weather History Date:

Thursday, August 22, 2013

  Actual Average Record
Temperature  
Mean Temperature 75 °F 68 °F  
Max Temperature 87 °F 85 °F 103 °F (1949)
Min Temperature 63 °F 52 °F 33 °F (1966)
Degree Days  
Heating Degree Days 0 1  
Month to date heating degree days 0 19  
Since 1 June heating degree days 117 180  
Since 1 July heating degree days 0 38  
Cooling Degree Days 10 5  
Month to date cooling degree days 151 143  
Year to date cooling degree days 423 425  
Since 1 June cooling degree days 415 417  
Growing Degree Days 26 (Base 50)    
Moisture  
Dew Point 54 °F    
Average Humidity 49    
Maximum Humidity 67    
Minimum Humidity 31    
Precipitation  
Precipitation T in 0.02 in 0.44 in (2014)
Month to date precipitation 0.99 0.72  
Year to date precipitation 13.43 10.25  
Sea Level Pressure  
Sea Level Pressure 29.98 in    
Wind  
Wind Speed 12 mph (SSE)    
Max Wind Speed 24 mph    
Max Gust Speed 36 mph    
Visibility 10 miles    
Events Thunderstorm    
T = Trace of Precipitation, MM = Missing Value Source: NWS Daily Summary

Daily Weather History Graph

Daily Weather History Graph

Search for Another Location

Airport:

Trip Planner

Search our weather history database for the weather conditions in past years. The results will help you decide how hot, cold, wet, or windy it might be!

Date:

Astronomy

Aug. 22, 2013 Rise Set
Actual Time 6:13 AM MDT 7:55 PM MDT
Civil Twilight 5:42 AM MDT 8:25 PM MDT
Nautical Twilight 5:05 AM MDT 9:03 PM MDT
Astronomical Twilight 4:25 AM MDT 9:43 PM MDT
Moon 8:33 PM MDT (8/22) 8:11 AM MDT (8/22)
Length of Visible Light 14h 42m
Length of Day
13h 41m
Waning Gibbous, 96% of the Moon is Illuminated
Aug 22
Waning Gibbous
Aug 28
Last Quarter
Sep 5
New
Sep 12
First Quarter
Sep 19
Full

Hourly Weather History & Observations

Time (MDT) Temp. Heat Index Dew Point Humidity Pressure Visibility Wind Dir Wind Speed Gust Speed Precip Events Conditions
12:53 AM 70.0 °F - 52.0 °F 53% 29.99 in 10.0 mi South 12.7 mph - N/A   Clear
1:53 AM 68.0 °F - 52.0 °F 56% 29.99 in 10.0 mi SSE 5.8 mph - N/A   Clear
2:53 AM 66.9 °F - 53.1 °F 61% 30.00 in 10.0 mi Variable 3.5 mph - N/A   Clear
3:53 AM 66.0 °F - 53.1 °F 63% 30.00 in 10.0 mi South 3.5 mph - N/A   Clear
4:53 AM 64.0 °F - 53.1 °F 67% 30.00 in 10.0 mi Calm Calm - N/A   Clear
5:53 AM 64.0 °F - 53.1 °F 67% 30.00 in 10.0 mi South 11.5 mph - N/A   Clear
6:53 AM 64.0 °F - 53.1 °F 67% 30.03 in 10.0 mi Calm Calm - N/A   Clear
7:53 AM 66.9 °F - 53.1 °F 61% 30.05 in 10.0 mi SSE 12.7 mph - N/A   Clear
8:53 AM 71.1 °F - 53.1 °F 53% 30.08 in 10.0 mi SSE 10.4 mph - N/A   Clear
9:53 AM 73.9 °F - 54.0 °F 50% 30.06 in 10.0 mi SSE 6.9 mph - N/A   Clear
10:53 AM 78.1 °F - 55.0 °F 45% 30.05 in 10.0 mi SSE 10.4 mph - N/A   Clear
11:53 AM 80.1 °F 80.1 °F 55.0 °F 42% 30.03 in 10.0 mi SE 9.2 mph - N/A   Partly Cloudy
12:53 PM 82.9 °F 82.0 °F 55.0 °F 38% 29.99 in 10.0 mi SE 11.5 mph 21.9 mph N/A   Partly Cloudy
1:53 PM 87.1 °F 85.1 °F 54.0 °F 32% 29.97 in 10.0 mi SSE 12.7 mph 26.5 mph N/A   Clear
2:53 PM 87.1 °F 85.3 °F 55.0 °F 33% 29.94 in 10.0 mi SSE 18.4 mph 26.5 mph N/A   Clear
3:53 PM 82.9 °F 82.1 °F 55.9 °F 39% 29.93 in 10.0 mi SE 17.3 mph 23.0 mph 0.00 in   Scattered Clouds
4:14 PM 84.2 °F 83.0 °F 55.4 °F 37% 30.07 in 10.0 mi SE 20.7 mph - N/A Thunderstorm Partly Cloudy
4:29 PM 82.4 °F 81.7 °F 55.4 °F 39% 30.05 in 10.0 mi SSE 18.4 mph 26.5 mph N/A   Clear
4:53 PM 84.0 °F 82.6 °F 54.0 °F 35% 29.91 in 10.0 mi SSE 19.6 mph 26.5 mph N/A   Clear
5:53 PM 82.9 °F 81.9 °F 54.0 °F 37% 29.89 in 10.0 mi SE 19.6 mph 27.6 mph N/A   Clear
6:53 PM 81.0 °F 80.4 °F 53.1 °F 38% 29.89 in 10.0 mi SE 19.6 mph 28.8 mph N/A   Partly Cloudy
7:53 PM 77.0 °F - 55.0 °F 47% 29.90 in 10.0 mi SE 19.6 mph 28.8 mph N/A   Clear
8:53 PM 75.0 °F - 55.9 °F 51% 29.93 in 10.0 mi ESE 9.2 mph - N/A   Scattered Clouds
9:53 PM 73.9 °F - 57.9 °F 57% 29.93 in 10.0 mi SE 19.6 mph 28.8 mph N/A   Mostly Cloudy
10:53 PM 73.0 °F - 55.9 °F 55% 29.90 in 10.0 mi SE 17.3 mph - N/A   Clear
11:53 PM 70.0 °F - 57.9 °F 65% 29.91 in 10.0 mi SE 17.3 mph 26.5 mph N/A   Clear